VE1DX Weather Reports


Display with metric or nautical units.
time (UTC)temp
F
wind
direction
speed
MPH
gust
MPH
rain 1hr
in
rain 24hr
in
rain mn
in
humidity
%
barometer
mb
20260901221516 68 0 1.0 3.0 0.00 0.00 0.00 84 1018.8
20260901221016 68 0.0 1.0 0.00 0.00 0.00 84 1018.7
20260901220516 69 23 1.0 2.0 0.00 0.00 0.00 84 1018.8
20260901220016 69 0.0 1.0 0.00 0.00 0.00 83 1018.7
20260901215516 69 0.0 1.0 0.00 0.00 0.00 81 1018.5
20260901215016 70 0.0 1.0 0.00 0.00 0.00 81 1018.5
20260901214516 70 0.0 1.0 0.00 0.00 0.00 81 1018.5
20260901214016 70 0.0 3.0 0.00 0.00 0.00 80 1018.4
20260901213516 70 0.0 0.0 0.00 0.00 0.00 81 1018.3
20260901213016 70 0.0 3.0 0.00 0.00 0.00 81 1018.3
20260901212516 69 0.0 3.0 0.00 0.00 0.00 82 1018.3
20260901212016 69 0.0 0.0 0.00 0.00 0.00 83 1018.3
20260901211516 69 0.0 0.0 0.00 0.00 0.00 83 1018.2
20260901211016 69 0.0 1.0 0.00 0.00 0.00 82 1018.2
20260901210516 69 0.0 2.0 0.00 0.00 0.00 82 1018.1
20260901210016 69 0.0 1.0 0.00 0.00 0.00 81 1018.1
20260901205516 70 0.0 1.0 0.00 0.00 0.00 80 1018.0
20260901205016 70 0.0 2.0 0.00 0.00 0.00 79 1017.9
20260901204516 71 0.0 3.0 0.00 0.00 0.00 78 1018.0
20260901204016 72 0.0 1.0 0.00 0.00 0.00 77 1018.1
20260901203516 72 113 1.0 4.0 0.00 0.00 0.00 75 1018.1
20260901203016 73 0.0 2.0 0.00 0.00 0.00 75 1018.1
20260901202516 72 0.0 1.0 0.00 0.00 0.00 76 1018.0
20260901202016 71 0.0 2.0 0.00 0.00 0.00 76 1018.0
20260901201516 71 0.0 1.0 0.00 0.00 0.00 75 1018.0
20260901201016 71 0.0 2.0 0.00 0.00 0.00 74 1018.0
20260901200516 72 0.0 1.0 0.00 0.00 0.00 74 1018.0
20260901200016 73 135 1.0 4.0 0.00 0.00 0.00 71 1017.9
20260901195516 74 135 1.0 2.0 0.00 0.00 0.00 70 1018.0
20260901195016 75 225 1.0 4.0 0.00 0.00 0.00 69 1018.0
20260901194516 75 225 1.0 4.0 0.00 0.00 0.00 68 1017.9
20260901194016 75 135 1.0 3.0 0.00 0.00 0.00 69 1017.9
20260901193516 74 113 1.0 2.0 0.00 0.00 0.00 71 1017.8
20260901193016 74 0.0 3.0 0.00 0.00 0.00 72 1017.8
20260901192516 73 225 1.0 4.0 0.00 0.00 0.00 76 1017.8
20260901192016 72 0.0 2.0 0.00 0.00 0.00 76 1017.8
20260901191516 72 135 1.0 3.0 0.00 0.00 0.00 76 1017.9
20260901191016 72 225 1.0 5.0 0.00 0.00 0.00 76 1017.9
20260901190516 72 113 1.0 2.0 0.00 0.00 0.00 77 1017.8
20260901190016 71 135 1.0 2.0 0.00 0.00 0.00 76 1017.8
20260901185516 70 0.0 4.0 0.00 0.00 0.00 78 1017.8
20260901185016 70 0.0 0.0 0.00 0.00 0.00 78 1017.8
20260901184516 70 0.0 1.0 0.00 0.00 0.00 77 1017.8
20260901184016 70 0.0 2.0 0.00 0.00 0.00 76 1017.8
20260901183516 71 0.0 2.0 0.00 0.00 0.00 76 1017.8
20260901183016 71 113 1.0 3.0 0.00 0.00 0.00 75 1017.8
20260901182516 72 113 1.0 3.0 0.00 0.00 0.00 74 1017.8
20260901182016 73 225 1.0 4.0 0.00 0.00 0.00 74 1017.7
20260901181516 73 135 1.0 4.0 0.00 0.00 0.00 73 1017.8
20260901181016 73 113 1.0 4.0 0.00 0.00 0.00 74 1017.8
20260901180516 73 135 1.0 3.0 0.00 0.00 0.00 75 1017.8
20260901180016 73 248 1.0 4.0 0.00 0.00 0.00 72 1017.9
20260901175516 73 113 1.0 5.0 0.00 0.00 0.00 71 1017.9
20260901175016 73 225 1.0 5.0 0.00 0.00 0.00 71 1017.8
20260901174516 72 225 2.0 6.0 0.00 0.00 0.00 75 1017.7
20260901174017 72 0.0 4.0 0.00 0.00 0.00 76 1017.8
20260901173516 72 135 1.0 2.0 0.00 0.00 0.00 73 1017.9
20260901173016 73 0.0 1.0 0.00 0.00 0.00 74 1017.9
20260901172516 73 135 1.0 2.0 0.00 0.00 0.00 74 1017.9
20260901172016 72 113 1.0 3.0 0.00 0.00 0.00 73 1017.8
20260901171516 72 225 1.0 8.0 0.00 0.00 0.00 74 1017.9
20260901171016 72 135 2.0 6.0 0.00 0.00 0.00 74 1017.9
20260901170516 72 113 2.0 5.0 0.00 0.00 0.00 74 1018.0
20260901170016 72 135 1.0 9.0 0.00 0.00 0.00 74 1018.0
20260901165516 72 135 1.0 9.0 0.00 0.00 0.00 73 1018.1
20260901165016 72 113 1.0 4.0 0.00 0.00 0.00 75 1018.0
20260901164516 72 135 1.0 2.0 0.00 0.00 0.00 74 1018.0
20260901164016 72 135 1.0 4.0 0.00 0.00 0.00 75 1018.0
20260901163516 72 225 1.0 6.0 0.00 0.00 0.00 76 1018.0
20260901163016 72 113 1.0 3.0 0.00 0.00 0.00 80 1018.1
20260901162516 71 0.0 1.0 0.00 0.00 0.00 78 1018.1
20260901162016 71 0.0 1.0 0.00 0.00 0.00 77 1018.1
20260901161516 71 0.0 2.0 0.00 0.00 0.00 78 1018.0
20260901161016 70 0.0 1.0 0.00 0.00 0.00 81 1018.1
20260901160516 70 0.0 0.0 0.00 0.00 0.00 83 1018.2
20260901160016 70 0.0 0.0 0.00 0.00 0.00 85 1018.3
20260901155516 69 0.0 0.0 0.00 0.00 0.00 80 1018.3
20260901155016 70 0.0 1.0 0.00 0.00 0.00 81 1018.3
20260901154516 70 0.0 1.0 0.00 0.00 0.00 78 1018.4
20260901154016 70 248 1.0 2.0 0.00 0.00 0.00 76 1018.3
20260901153516 71 0.0 1.0 0.00 0.00 0.00 75 1018.4
20260901153016 71 0.0 2.0 0.00 0.00 0.00 75 1018.4
20260901152516 72 0.0 2.0 0.00 0.00 0.00 74 1018.4
20260901152016 72 0.0 2.0 0.00 0.00 0.00 76 1018.4
20260901151516 71 0.0 1.0 0.00 0.00 0.00 79 1018.4
20260901151016 70 0.0 2.0 0.00 0.00 0.00 78 1018.3
20260901150516 69 0.0 2.0 0.00 0.00 0.00 82 1018.4
20260901150016 68 23 1.0 2.0 0.00 0.00 0.00 82 1018.4
20260901145516 68 0.0 1.0 0.00 0.00 0.00 83 1018.4
20260901145016 68 0.0 1.0 0.00 0.00 0.00 84 1018.4
20260901144516 67 0.0 1.0 0.00 0.00 0.00 86 1018.4
20260901144016 67 23 1.0 2.0 0.00 0.00 0.00 85 1018.5
20260901143516 66 0.0 1.0 0.00 0.00 0.00 86 1018.5
20260901143016 66 0.0 1.0 0.00 0.00 0.00 88 1018.5
20260901142516 66 0.0 1.0 0.00 0.00 0.00 87 1018.5
20260901142016 66 0.0 1.0 0.00 0.00 0.00 88 1018.5
20260901141516 66 0 1.0 2.0 0.00 0.00 0.00 87 1018.5
20260901141016 66 23 1.0 2.0 0.00 0.00 0.00 86 1018.5
20260901140516 66 0 1.0 2.0 0.00 0.00 0.00 86 1018.4
20260901140016 66 23 1.0 2.0 0.00 0.00 0.00 86 1018.5
20260901135516 66 23 1.0 2.0 0.00 0.00 0.00 87 1018.4
20260901135016 66 0.0 2.0 0.00 0.00 0.00 90 1018.4
20260901134516 66 0.0 2.0 0.00 0.00 0.00 89 1018.4
20260901134016 65 0.0 0.0 0.00 0.00 0.00 91 1018.4
20260901133516 64 0.0 0.0 0.00 0.00 0.00 92 1018.4
20260901133016 64 0.0 0.0 0.00 0.00 0.00 94 1018.4
20260901132516 64 0.0 0.0 0.00 0.00 0.00 94 1018.4
20260901132016 63 0.0 0.0 0.00 0.00 0.00 95 1018.4
20260901131516 63 0.0 0.0 0.00 0.00 0.00 97 1018.4
20260901131016 63 0.0 0.0 0.00 0.00 0.00 99 1018.4
20260901130516 62 0.0 0.0 0.00 0.00 0.00 100 1018.4
20260901130016 62 0.0 0.0 0.00 0.00 0.00 100 1018.4
20260901125516 61 0.0 0.0 0.00 0.00 0.00 100 1018.4
20260901125016 61 0.0 0.0 0.00 0.00 0.00 100 1018.4
20260901124516 61 0.0 0.0 0.00 0.00 0.00 100 1018.3
20260901124016 61 0.0 0.0 0.00 0.00 0.00 100 1018.4
20260901123516 60 0.0 0.0 0.00 0.00 0.00 100 1018.4
20260901123016 60 0.0 0.0 0.00 0.00 0.00 100 1018.5
20260901122516 60 0.0 0.0 0.00 0.00 0.00 100 1018.4
20260901122016 59 0.0 0.0 0.00 0.00 0.00 100 1018.4
20260901121516 59 0.0 0.0 0.00 0.00 0.00 100 1018.4
20260901121016 59 0.0 0.0 0.00 0.00 0.00 100 1018.4
20260901120516 59 0.0 0.0 0.00 0.00 0.00 100 1018.3
20260901120016 58 0.0 0.0 0.00 0.00 0.00 100 1018.3
20260901115516 57 0.0 0.0 0.00 0.00 0.00 100 1018.2
20260901115016 57 0.0 0.0 0.00 0.00 0.00 100 1018.2
20260901114516 56 0.0 0.0 0.00 0.00 0.00 100 1018.2
20260901114016 56 0.0 0.0 0.00 0.00 0.00 100 1018.1
20260901113516 55 0.0 0.0 0.00 0.00 0.00 100 1018.1
20260901113016 54 0.0 0.0 0.00 0.00 0.00 100 1018.2
20260901112516 54 0.0 0.0 0.00 0.00 0.00 100 1018.2
20260901112016 54 0.0 0.0 0.00 0.00 0.00 100 1018.2
20260901111516 53 0.0 0.0 0.00 0.00 0.00 100 1018.3
20260901111016 53 0.0 0.0 0.00 0.00 0.00 100 1018.3
20260901110516 52 0.0 0.0 0.00 0.00 0.00 100 1018.3
20260901110016 52 0.0 0.0 0.00 0.00 0.00 100 1018.2
20260901105516 51 0.0 0.0 0.00 0.00 0.00 100 1018.2
20260901105016 51 0.0 0.0 0.00 0.00 0.00 100 1018.2
20260901104516 51 0.0 0.0 0.00 0.00 0.00 100 1018.2
20260901104016 51 0.0 0.0 0.00 0.00 0.00 100 1018.2
20260901103516 51 0.0 0.0 0.00 0.00 0.00 100 1018.2
20260901103016 50 0.0 0.0 0.00 0.00 0.00 100 1018.2
20260901102516 50 0.0 0.0 0.00 0.00 0.00 100 1018.2
20260901102016 50 0.0 0.0 0.00 0.00 0.00 100 1018.1
20260901101516 50 0.0 0.0 0.00 0.00 0.00 100 1017.9
20260901101016 50 0.0 0.0 0.00 0.00 0.00 100 1017.8
20260901100516 50 0.0 0.0 0.00 0.00 0.00 100 1017.8
20260901100016 51 0.0 0.0 0.00 0.00 0.00 100 1017.8
20260901095516 50 0.0 0.0 0.00 0.00 0.00 100 1017.7
20260901095016 50 0.0 0.0 0.00 0.00 0.00 100 1017.7
20260901094516 50 0.0 0.0 0.00 0.00 0.00 100 1017.8
20260901094016 50 0.0 0.0 0.00 0.01 0.00 100 1017.8
20260901093516 50 0.0 0.0 0.00 0.01 0.00 100 1017.8
20260901093016 50 0.0 0.0 0.00 0.01 0.00 100 1017.8
20260901092516 50 0.0 0.0 0.00 0.01 0.00 100 1017.8
20260901092017 50 0.0 0.0 0.00 0.01 0.00 100 1017.8
20260901091516 50 0.0 0.0 0.00 0.01 0.00 100 1017.8
20260901091016 50 0.0 0.0 0.00 0.01 0.00 100 1017.8
20260901090516 50 0.0 0.0 0.00 0.01 0.00 100 1017.8
20260901090016 50 0.0 0.0 0.00 0.01 0.00 100 1017.8
20260901085516 51 0.0 0.0 0.00 0.01 0.00 100 1017.7
20260901085016 51 0.0 0.0 0.00 0.01 0.00 100 1017.8
20260901084516 51 0.0 0.0 0.00 0.01 0.00 100 1017.8
20260901084016 50 0.0 0.0 0.00 0.01 0.00 100 1017.7
20260901083516 50 0.0 0.0 0.00 0.01 0.00 100 1017.7
20260901083016 50 0.0 0.0 0.00 0.01 0.00 100 1017.6
20260901082516 51 0.0 0.0 0.00 0.01 0.00 100 1017.6
20260901082016 51 0.0 0.0 0.00 0.01 0.00 100 1017.6
20260901081516 51 0.0 0.0 0.00 0.01 0.00 100 1017.7
20260901081016 51 0.0 0.0 0.00 0.01 0.00 100 1017.7
20260901080516 50 0.0 0.0 0.00 0.01 0.00 100 1017.6
20260901080016 50 0.0 0.0 0.00 0.01 0.00 100 1017.5
20260901075515 50 0.0 0.0 0.00 0.01 0.00 100 1017.5
20260901075016 50 0.0 0.0 0.00 0.01 0.00 100 1017.5
20260901074516 50 0.0 0.0 0.00 0.01 0.00 100 1017.6
20260901074016 50 0.0 0.0 0.00 0.01 0.00 100 1017.5
20260901073516 51 0.0 0.0 0.00 0.01 0.00 100 1017.8
20260901073016 51 0.0 0.0 0.00 0.01 0.00 100 1017.7
20260901072516 51 0.0 0.0 0.00 0.01 0.00 100 1017.8
20260901072015 51 0.0 0.0 0.00 0.01 0.00 100 1017.8
20260901071515 51 0.0 0.0 0.00 0.01 0.00 100 1017.8
20260901071015 51 0.0 0.0 0.00 0.01 0.00 100 1017.7
20260901070516 51 0.0 0.0 0.00 0.01 0.00 100 1017.7
20260901070016 51 0.0 0.0 0.00 0.01 0.00 100 1017.7
20260901065516 51 0.0 0.0 0.00 0.01 0.00 100 1017.7
20260901065016 51 0.0 0.0 0.00 0.01 0.00 100 1017.7
20260901064516 51 0.0 0.0 0.00 0.01 0.00 100 1017.7
20260901064016 51 0.0 0.0 0.00 0.01 0.00 100 1017.6
20260901063516 51 0.0 0.0 0.00 0.01 0.00 100 1017.6
20260901063015 51 0.0 0.0 0.00 0.01 0.00 100 1017.6
20260901062516 51 0.0 0.0 0.00 0.01 0.00 100 1017.6
20260901062016 51 0.0 0.0 0.00 0.01 0.00 100 1017.6
20260901061516 51 0.0 0.0 0.00 0.01 0.00 100 1017.5
20260901061016 51 0.0 0.0 0.00 0.01 0.00 100 1017.6
20260901060515 51 0.0 0.0 0.00 0.01 0.00 100 1017.6
20260901060016 51 0.0 0.0 0.00 0.01 0.00 100 1017.6
20260901055515 51 0.0 0.0 0.00 0.01 0.00 100 1017.6
20260901055015 52 0.0 0.0 0.00 0.02 0.00 100 1017.6
20260901054515 52 0.0 0.0 0.00 0.02 0.00 100 1017.5
20260901054016 52 0.0 0.0 0.00 0.02 0.00 100 1017.5
20260901053516 52 0.0 0.0 0.00 0.03 0.00 100 1017.4
20260901053016 52 0.0 0.0 0.00 0.03 0.00 100 1017.4
20260901052516 52 0.0 0.0 0.00 0.03 0.00 100 1017.4
20260901052016 52 0.0 0.0 0.00 0.03 0.00 100 1017.4
20260901051516 52 0.0 0.0 0.00 0.03 0.00 100 1017.4
20260901051016 52 0.0 0.0 0.00 0.03 0.00 100 1017.4
20260901050516 52 0.0 0.0 0.00 0.04 0.00 100 1017.4
20260901050016 52 0.0 0.0 0.00 0.04 0.00 100 1017.5
20260901045516 52 0.0 0.0 0.00 0.04 0.00 100 1017.5
20260901045016 52 0.0 0.0 0.00 0.04 0.00 100 1017.6
20260901044516 52 0.0 0.0 0.00 0.04 0.00 100 1017.7
20260901044016 52 0.0 0.0 0.00 0.04 0.00 100 1017.7
20260901043515 52 0.0 0.0 0.00 0.05 0.00 100 1017.7
20260901043015 52 0.0 0.0 0.00 0.05 0.00 100 1017.8
20260901042515 52 0.0 0.0 0.00 0.05 0.00 100 1017.8
20260901042016 52 0.0 0.0 0.00 0.05 0.00 100 1017.7
20260901041516 52 0.0 0.0 0.00 0.05 0.00 100 1017.8
20260901041016 52 0.0 0.0 0.00 0.05 0.00 100 1017.8
20260901040516 53 0.0 0.0 0.00 0.06 0.00 100 1017.7
20260901040016 53 0.0 0.0 0.00 0.06 0.00 100 1017.7
20260901035516 53 0.0 0.0 0.00 0.06 0.00 100 1017.7
20260901035015 53 0.0 0.0 0.00 0.06 0.00 100 1017.6
20260901034516 53 0.0 0.0 0.00 0.06 0.00 100 1017.6
20260901034016 53 0.0 0.0 0.00 0.06 0.00 100 1017.5
20260901033516 53 0.0 0.0 0.00 0.06 0.00 100 1017.5
20260901033016 53 0.0 0.0 0.00 0.06 0.00 100 1017.5
20260901032516 53 0.0 0.0 0.00 0.06 0.00 99 1017.4
20260901032016 53 0.0 0.0 0.00 0.06 0.00 99 1017.4
20260901031516 54 0.0 0.0 0.00 0.06 0.00 99 1017.4
20260901031016 54 0.0 0.0 0.00 0.06 0.00 100 1017.4
20260901030516 53 0.0 0.0 0.00 0.06 0.00 99 1017.4
20260901030015 53 0.0 0.0 0.00 0.06 0.06 99 1017.4
20260901025516 54 0.0 0.0 0.00 0.06 0.06 99 1017.4
20260901025016 54 0.0 0.0 0.00 0.06 0.06 99 1017.4
20260901024516 54 0.0 0.0 0.00 0.06 0.06 99 1017.5
20260901024016 54 0.0 0.0 0.00 0.06 0.06 99 1017.5
20260901023516 54 0.0 0.0 0.00 0.06 0.06 99 1017.5
20260901023016 54 0.0 0.0 0.00 0.06 0.06 99 1017.5
20260901022516 55 0.0 0.0 0.00 0.06 0.06 99 1017.5
20260901022016 55 0.0 0.0 0.00 0.06 0.06 99 1017.5
20260901021516 55 0.0 0.0 0.00 0.06 0.06 99 1017.5
20260901021016 55 0.0 0.0 0.00 0.06 0.06 99 1017.4
20260901020516 55 0.0 0.0 0.00 0.06 0.06 98 1017.4
20260901020016 55 0.0 0.0 0.00 0.06 0.06 98 1017.4
20260901015516 55 0.0 0.0 0.00 0.06 0.06 98 1017.3
20260901015016 55 0.0 0.0 0.00 0.06 0.06 98 1017.3
20260901014516 55 0.0 0.0 0.00 0.06 0.06 98 1017.3
20260901014016 55 0.0 0.0 0.00 0.06 0.06 98 1017.3
20260901013516 55 0.0 0.0 0.00 0.06 0.06 97 1017.4
20260901013016 55 0.0 0.0 0.00 0.06 0.06 97 1017.3
20260901012516 55 0.0 0.0 0.00 0.06 0.06 97 1017.3
20260901012016 56 0.0 0.0 0.00 0.06 0.06 97 1017.3
20260901011516 56 0.0 0.0 0.00 0.06 0.06 97 1017.3
20260901011016 56 0.0 0.0 0.00 0.06 0.06 97 1017.3
20260901010516 56 0.0 0.0 0.00 0.06 0.06 97 1017.3
20260901010016 56 0.0 0.0 0.00 0.06 0.06 97 1017.3
20260901005516 56 0.0 0.0 0.00 0.06 0.06 97 1017.2
20260901005016 56 0.0 0.0 0.00 0.06 0.06 96 1017.1
20260901004516 56 0.0 0.0 0.00 0.06 0.06 96 1017.2
20260901004016 57 0.0 0.0 0.00 0.06 0.06 96 1017.1
20260901003516 57 0.0 0.0 0.00 0.06 0.06 96 1017.0
20260901003016 57 0.0 0.0 0.00 0.06 0.06 96 1017.1
20260901002516 57 0.0 0.0 0.00 0.06 0.06 95 1016.9
20260901002016 57 0.0 0.0 0.00 0.06 0.06 94 1017.0
20260901001516 57 0.0 0.0 0.00 0.06 0.06 94 1016.9
20260901001016 57 0.0 0.0 0.00 0.06 0.06 94 1016.9
20260901000516 58 0.0 0.0 0.00 0.06 0.06 93 1016.8
20260901000016 58 0.0 0.0 0.00 0.06 0.06 93 1016.7
20260831235516 58 0.0 0.0 0.00 0.06 0.06 93 1016.6
20260831235016 58 0.0 0.0 0.00 0.06 0.06 92 1016.6
20260831234516 59 0.0 0.0 0.00 0.06 0.06 92 1016.5
20260831234016 59 0.0 0.0 0.00 0.06 0.06 91 1016.3
20260831233516 59 0.0 0.0 0.00 0.06 0.06 90 1016.4
20260831233016 60 0.0 0.0 0.00 0.06 0.06 90 1016.4
20260831232516 60 0.0 0.0 0.00 0.06 0.06 89 1016.4
20260831232016 61 0.0 0.0 0.00 0.06 0.06 88 1016.3
20260831231516 61 0.0 0.0 0.00 0.06 0.06 87 1016.2
20260831231016 62 0.0 0.0 0.00 0.06 0.06 87 1016.2
20260831230516 63 0.0 0.0 0.00 0.06 0.06 86 1016.1
20260831230016 63 0.0 0.0 0.00 0.06 0.06 86 1016.0
20260831225516 64 0.0 0.0 0.00 0.06 0.06 86 1016.0
20260831225016 64 0.0 0.0 0.00 0.06 0.06 85 1016.1
20260831224516 65 0.0 0.0 0.00 0.06 0.06 83 1016.1
20260831224016 66 0.0 0.0 0.00 0.06 0.06 82 1016.0
20260831223516 66 0.0 0.0 0.00 0.06 0.06 79 1016.1
20260831223016 67 0.0 1.0 0.00 0.06 0.06 76 1016.1
20260831222516 67 0.0 0.0 0.00 0.06 0.06 74 1016.1
20260831222016 67 0.0 1.0 0.00 0.06 0.06 73 1016.0